sat.trackr.live / text

‹ back to catalog

IRIDE-MS1-EAGLET 2-9

NORAD 68449 · 2026-067AK

PAYLOAD ACTIVE UNKNOWN

§ Identity

Operator
Country
IT
Launch date
2026-03-30
Launch site
AFWTR
Launch vehicle
Mass (kg)
RCS (m²)

External: N2YO · Heavens-Above · Gunter

§ Orbital elements

Epoch: 2026-09-20T02:49:48.637920Z

Period
94.79 min
Inclination
97.4610°
Eccentricity
0.0006087
Mean motion
15.19088590 rev/d
Perigee alt
504.4 km
Apogee alt
512.8 km
Semi-major
6,886.7 km
B*
2.3195e-4
RAAN
220.1763°
Arg perigee
93.9454°
Mean anomaly
266.2476°
Rev number
2,634

§ Raw data

IRIDE-MS1-EAGLET 2-91 68449U 26067AK  26263.11792405  .00004800  00000+0  23195-3 0  99942 68449  97.4610 220.1763 0006087  93.9454 266.2476 15.19088590 26340

JSON: /api/v1/satellites/68449 · /tle

For live sub-satellite position, see the globe view (requires WebGL).

§ Visibility from observer

Set your observer location to see the next 7 days of passes ≥ 10°. The values pass through the URL so the page stays shareable.

No JS? Fill the form by hand. The geolocation button needs JavaScript.